Sidney, NE

11:02 AM MDT on April 20, 2018 (GMT -0600)
Sidney Municipal

Weather History for KSNY - August, 2014

Change the Weather History Date:

Thursday, August 14, 2014

  Actual Average Record
Temperature  
Mean Temperature 77 °F 74 °F  
Max Temperature 95 °F 89 °F 101 °F (1995)
Min Temperature 59 °F 59 °F 46 °F (1992)
Degree Days  
Heating Degree Days 0 0  
Month to date heating degree days 0 0  
Since 1 June heating degree days 64 62  
Since 1 July heating degree days 9 3  
Cooling Degree Days 12 9  
Month to date cooling degree days 112 136  
Year to date cooling degree days 455 614  
Since 1 June cooling degree days 439 592  
Growing Degree Days 27 (Base 50)    
Moisture  
Dew Point 60 °F    
Average Humidity 59    
Maximum Humidity 93    
Minimum Humidity 24    
Precipitation  
Precipitation 0.76 in 0.07 in 2.87 in (1968)
Month to date precipitation 0.90 1.13  
Year to date precipitation 9.67 14.03  
Sea Level Pressure  
Sea Level Pressure 29.91 in    
Wind  
Wind Speed 7 mph (SE)    
Max Wind Speed 30 mph    
Max Gust Speed 38 mph    
Visibility 8 miles    
Events Rain , Thunderstorm    
T = Trace of Precipitation, MM = Missing Value Source: NWS Daily Summary

Daily Weather History Graph

Daily Weather History Graph

Search for Another Location

Airport or City:

Astronomy

Aug. 14, 2014 Rise Set
Actual Time 6:00 AM MDT 7:51 PM MDT
Civil Twilight 5:30 AM MDT 8:21 PM MDT
Nautical Twilight 4:54 AM MDT 8:57 PM MDT
Astronomical Twilight 4:15 AM MDT 9:36 PM MDT
Moon 10:13 PM MDT (8/14) 10:42 AM MDT (8/14)
Length of Visible Light 14h 50m
Length of Day
13h 51m
Waning Gibbous, 78% of the Moon is Illuminated
Aug 14
Waning Gibbous
Aug 17
Last Quarter
Aug 25
New
Sep 2
First Quarter
Sep 8
Full

Hourly Weather History & Observations

Time (MDT) Temp. Heat Index Dew Point Humidity Pressure Visibility Wind Dir Wind Speed Gust Speed Precip Events Conditions
12:53 AM 73.9 °F - 60.1 °F 62% 29.87 in 10.0 mi SSE 13.8 mph - N/A   Clear
1:53 AM 71.1 °F - 60.1 °F 68% 29.87 in 10.0 mi South 8.1 mph - N/A   Clear
2:53 AM 66.9 °F - 60.1 °F 79% 29.86 in 10.0 mi East 5.8 mph - N/A   Clear
3:53 AM 66.9 °F - 60.1 °F 79% 29.85 in 10.0 mi South 3.5 mph - N/A   Clear
4:53 AM 64.9 °F - 60.1 °F 84% 29.85 in 10.0 mi SSE 6.9 mph - N/A   Clear
5:53 AM 61.0 °F - 57.9 °F 90% 29.86 in 10.0 mi SSE 5.8 mph - N/A   Clear
6:53 AM 63.0 °F - 60.1 °F 90% 29.87 in 8.0 mi Calm Calm - N/A   Clear
7:53 AM 70.0 °F - 61.0 °F 73% 29.87 in 10.0 mi Variable 3.5 mph - N/A   Clear
8:53 AM 75.9 °F - 61.0 °F 60% 29.86 in 10.0 mi NW 4.6 mph - N/A   Clear
9:53 AM 81.0 °F 81.7 °F 61.0 °F 50% 29.85 in 10.0 mi NNE 5.8 mph - N/A   Clear
10:53 AM 84.0 °F 83.8 °F 59.0 °F 43% 29.84 in 10.0 mi East 5.8 mph - N/A   Clear
11:53 AM 90.0 °F 87.9 °F 55.0 °F 30% 29.83 in 10.0 mi ESE 8.1 mph - N/A   Clear
12:53 PM 91.9 °F 89.5 °F 54.0 °F 27% 29.81 in 10.0 mi Variable 5.8 mph - N/A   Clear
1:53 PM 93.0 °F - 51.1 °F 24% 29.81 in 10.0 mi North - - N/A   Clear
2:53 PM 90.0 °F 87.9 °F 55.0 °F 30% 29.80 in 10.0 mi SSE 12.7 mph 18.4 mph N/A   Overcast
3:40 PM 80.1 °F 80.7 °F 59.0 °F 48% 29.98 in 10.0 mi North 12.7 mph - N/A Thunderstorm Thunderstorm
3:53 PM 75.0 °F - 57.9 °F 55% 29.84 in 10.0 mi NNE 23.0 mph 38.0 mph N/A Thunderstorm Thunderstorm
4:23 PM 73.9 °F - 63.0 °F 68% 29.99 in 1.8 mi East 9.2 mph - 0.04 in Rain , Thunderstorm Light Thunderstorms and Rain
4:30 PM 72.0 °F - 64.0 °F 76% 30.01 in 3.0 mi SE 11.5 mph - 0.11 in Rain , Thunderstorm Thunderstorms and Rain
4:34 PM 71.1 °F - 63.0 °F 75% 30.03 in 1.8 mi Variable 5.8 mph 24.2 mph 0.22 in Rain , Thunderstorm Heavy Thunderstorms and Rain
4:39 PM 69.1 °F - 60.1 °F 73% 30.01 in 0.8 mi North - - 0.30 in Rain , Thunderstorm Heavy Thunderstorms and Rain
4:44 PM 70.0 °F - 59.0 °F 68% 30.01 in 1.2 mi East 8.1 mph - 0.31 in Rain , Thunderstorm Light Thunderstorms and Rain
4:48 PM 69.8 °F - 60.8 °F 73% 30.02 in 4.0 mi SE 9.2 mph - 0.31 in Rain , Thunderstorm Light Thunderstorms and Rain
4:53 PM 70.0 °F - 60.1 °F 71% 29.88 in 4.0 mi East 11.5 mph - 0.37 in Rain , Thunderstorm Thunderstorms and Rain
5:00 PM 70.0 °F - 57.9 °F 65% 30.01 in 1.8 mi Variable 3.5 mph - 0.06 in Rain , Thunderstorm Thunderstorms and Rain
5:15 PM 68.0 °F - 60.1 °F 76% 29.99 in 2.0 mi NE 11.5 mph - 0.27 in Rain Heavy Rain
5:30 PM 69.1 °F - 60.1 °F 73% 29.98 in 4.0 mi NNE 5.8 mph - 0.34 in Rain Rain
5:53 PM 73.9 °F - 57.0 °F 55% 29.84 in 10.0 mi Variable 5.8 mph - 0.36 in Rain Light Rain
6:53 PM 73.0 °F - 63.0 °F 71% 29.85 in 10.0 mi Calm Calm - 0.00 in   Mostly Cloudy
7:23 PM 70.0 °F - 62.1 °F 76% 30.01 in 10.0 mi WSW 12.7 mph 26.5 mph N/A   Mostly Cloudy
7:53 PM 70.0 °F - 62.1 °F 76% 29.87 in 10.0 mi WSW 10.4 mph - 0.00 in Rain Light Rain
8:30 PM 69.1 °F - 64.0 °F 84% 30.02 in 10.0 mi WNW 9.2 mph - 0.02 in Rain , Thunderstorm Light Thunderstorms and Rain
8:53 PM 68.0 °F - 64.0 °F 87% 29.87 in 10.0 mi NW 3.5 mph - 0.02 in Rain , Thunderstorm Light Thunderstorms and Rain
9:01 PM 68.0 °F - 64.0 °F 87% 30.02 in 10.0 mi West 6.9 mph - 0.01 in Rain Light Rain
9:53 PM 66.9 °F - 63.0 °F 87% 29.89 in 10.0 mi SW 10.4 mph - 0.01 in   Mostly Cloudy
10:53 PM 68.0 °F - 63.0 °F 84% 29.88 in 10.0 mi West 15.0 mph - N/A   Overcast
11:53 PM 66.0 °F - 61.0 °F 84% 29.81 in 10.0 mi South 4.6 mph - N/A   Partly Cloudy